Погода в Харабали

Россия / Астраханская область     47°24′33″N   47°15′07″E
темп.,
°C
ветер,
м/с
пор.,
м/с
влажн.,
%
обл.,
%
осадки,
мм/ч
давл.,
гПа
погр.,
м
24 сентября, пт
пт2401:00+12ссв2482100 0.0 1011135
04:00+13с4678100 0.1 1011214
07:00+13ссв4775100 0.1 1009328
10:00+11ссз7988100 2.8 1009342
13:00+13ссз7885100 1.1 1009436
16:00+12сз91287100 1.3 1009393
19:00+11зсз81288100 0.0 1010546
22:00+10зсз6128797 0.0 1010389
25 сентября, сб
сб2501:00+9з36865 0.0 1012114
04:00+9з35840 0.0 101277
07:00+9з33861 0.0 101123
10:00+15зюз2264100 0.0 1012420
13:00+18з3447100 0.0 1011981
16:00+17зсз4548100 0.0 10121091
19:00+15всв2257100 0.0 101316
22:00+13з3682100 0.1 1014219
26 сентября, вс
вс2601:00+12юз488422 0.3 1013244
04:00+12зюз5118036 0.3 1013303
07:00+10з5108319 0.0 1014262
10:00+15з710575 0.0 1014844
13:00+19з894384 0.0 10132196
16:00+18з9942100 0.0 10131826
19:00+14юз4752100 0.0 1011160
22:00+13зюз61082100 1.1 1010563
27 сентября, пн
пн2701:00+13зюз51091100 3.4 1007503
04:00+13з1015810 6.1 1006582
07:00+10з9148583 0.0 1008722
10:00+12зсз10127047 0.0 1009909
13:00+14зсз11126099 0.1 10101420
16:00+15зсз9105730 0.2 10111393
19:00+14сз71066100 0.1 1013719
22:00+13сз597577 0.1 1014431
28 сентября, вт
вт2801:00+11зсз498524 0.0 1015197
04:00+11сз48796 0.0 1016240
07:00+9ссз488848 0.0 1018185
10:00+13ссв556517 0.0 1019747
13:00+14с5556100 0.0 10201277
16:00+14с554873 0.0 10211534
19:00+12с46525 0.0 1022119
22:00+11с34595 0.0 102364